Precipitable_Water
0.36 0.29 0.26 0.28 0.27 0.24 0.21 0.21 0.22 0.25 0.29 0.30 0.33 0.33 0.37 0.41 0.43 0.47 0.52 0.59 0.63 0.69 0.80 0.88 0.93 1.02 1.06 1.14 1.17 1.20 1.23 1.28 1.19 1.06 0.97 0.92 0.90 1.01 1.01 0.91 0.86 0.80 0.76 0.73
0.29 0.26 0.31 0.34 0.31 0.27 0.25 0.24 0.26 0.31 0.34 0.31 0.35 0.34 0.39 0.41 0.41 0.45 0.47 0.53 0.59 0.64 0.72 0.78 0.87 0.97 1.06 1.09 1.08 1.06 1.00 0.97 0.98 0.94 0.94 0.95 0.88 0.78 0.75 0.73 0.72 0.71 0.67 0.63
0.21 0.28 0.34 0.32 0.27 0.29 0.30 0.24 0.26 0.28 0.34 0.38 0.35 0.31 0.36 0.44 0.49 0.55 0.58 0.63 0.67 0.67 0.71 0.77 0.82 0.85 0.84 0.81 0.78 0.75 0.75 0.75 0.76 0.77 0.75 0.72 0.71 0.72 0.68 0.67 0.63 0.63 0.61 0.60
0.28 0.34 0.31 0.29 0.30 0.35 0.29 0.35 0.32 0.32 0.30 0.25 0.35 0.21 0.34 0.42 0.46 0.52 0.59 0.63 0.64 0.64 0.64 0.66 0.66 0.63 0.60 0.60 0.65 0.69 0.69 0.69 0.72 0.73 0.71 0.69 0.66 0.62 0.64 0.61 0.61 0.61 0.62 0.60
0.25 0.30 0.29 0.28 0.28 0.30 0.29 0.36 0.34 0.33 0.30 0.29 0.29 0.26 0.30 0.42 0.40 0.47 0.56 0.60 0.62 0.61 0.62 0.63 0.64 0.67 0.69 0.70 0.66 0.67 0.69 0.70 0.71 0.69 0.68 0.66 0.62 0.62 0.62 0.60 0.59 0.59 0.59 0.58
0.31 0.40 0.36 0.32 0.34 0.33 0.34 0.34 0.34 0.33 0.30 0.21 0.26 0.25 0.25 0.32 0.38 0.47 0.55 0.59 0.62 0.61 0.63 0.65 0.69 0.72 0.72 0.69 0.69 0.70 0.71 0.69 0.67 0.66 0.67 0.66 0.64 0.62 0.58 0.57 0.55 0.56 0.54 0.52
0.30 0.31 0.35 0.37 0.30 0.32 0.31 0.28 0.19 0.19 0.18 0.16 0.28 0.25 0.26 0.38 0.46 0.51 0.53 0.58 0.62 0.63 0.64 0.69 0.73 0.66 0.68 0.69 0.70 0.72 0.71 0.67 0.66 0.66 0.67 0.64 0.62 0.59 0.56 0.55 0.54 0.51 0.47 0.42
0.22 0.18 0.27 0.34 0.30 0.26 0.26 0.27 0.20 0.14 0.14 0.18 0.30 0.23 0.29 0.43 0.50 0.55 0.57 0.59 0.61 0.62 0.67 0.70 0.67 0.62 0.66 0.69 0.70 0.71 0.70 0.68 0.68 0.65 0.62 0.61 0.59 0.57 0.54 0.51 0.47 0.43 0.39 0.37
0.24 0.21 0.30 0.36 0.39 0.35 0.26 0.22 0.32 0.24 0.28 0.22 0.25 0.30 0.39 0.45 0.45 0.48 0.50 0.53 0.56 0.62 0.64 0.61 0.63 0.63 0.64 0.67 0.69 0.70 0.68 0.65 0.59 0.54 0.50 0.47 0.45 0.39 0.34 0.32 0.30 0.27 0.28 0.30
0.33 0.24 0.28 0.35 0.39 0.36 0.29 0.30 0.17 0.18 0.10 0.10 0.17 0.20 0.21 0.29 0.34 0.42 0.45 0.49 0.55 0.59 0.59 0.60 0.60 0.63 0.65 0.67 0.70 0.67 0.66 0.56 0.53 0.48 0.45 0.38 0.35 0.32 0.28 0.25 0.22 0.21 0.24 0.33
0.40 0.32 0.25 0.30 0.26 0.25 0.24 0.19 0.18 0.18 0.17 0.10 0.10 0.14 0.29 0.31 0.38 0.40 0.45 0.50 0.55 0.58 0.58 0.59 0.62 0.65 0.66 0.66 0.66 0.65 0.58 0.52 0.50 0.43 0.37 0.35 0.32 0.28 0.24 0.21 0.19 0.21 0.28 0.35
0.44 0.33 0.25 0.23 0.33 0.33 0.28 0.21 0.18 0.10 0.11 0.16 0.15 0.12 0.31 0.34 0.40 0.43 0.45 0.50 0.55 0.57 0.59 0.60 0.63 0.64 0.62 0.63 0.60 0.54 0.55 0.52 0.42 0.38 0.36 0.33 0.30 0.28 0.25 0.22 0.22 0.24 0.27 0.32
0.39 0.30 0.21 0.20 0.24 0.27 0.21 0.24 0.22 0.20 0.20 0.14 0.12 0.11 0.31 0.33 0.35 0.43 0.45 0.50 0.54 0.56 0.59 0.61 0.63 0.60 0.57 0.54 0.53 0.57 0.50 0.40 0.39 0.37 0.36 0.31 0.29 0.28 0.25 0.23 0.23 0.24 0.26 0.31
0.40 0.28 0.20 0.13 0.16 0.21 0.19 0.21 0.22 0.20 0.14 0.14 0.14 0.15 0.24 0.30 0.34 0.40 0.45 0.50 0.54 0.57 0.59 0.60 0.58 0.54 0.52 0.55 0.59 0.47 0.41 0.40 0.39 0.37 0.33 0.31 0.29 0.29 0.26 0.24 0.25 0.26 0.30 0.32
0.34 0.22 0.24 0.23 0.22 0.21 0.18 0.17 0.21 0.18 0.19 0.15 0.16 0.17 0.22 0.30 0.35 0.41 0.48 0.51 0.54 0.56 0.57 0.57 0.54 0.52 0.57 0.56 0.47 0.43 0.41 0.39 0.37 0.34 0.32 0.31 0.31 0.28 0.26 0.25 0.26 0.28 0.31 0.32
0.34 0.20 0.22 0.19 0.23 0.21 0.17 0.19 0.19 0.19 0.20 0.20 0.21 0.18 0.30 0.35 0.41 0.43 0.46 0.49 0.52 0.55 0.55 0.55 0.55 0.58 0.51 0.44 0.41 0.40 0.38 0.35 0.35 0.33 0.31 0.31 0.29 0.27 0.25 0.26 0.27 0.30 0.34 0.33
0.22 0.21 0.17 0.13 0.20 0.18 0.12 0.13 0.16 0.17 0.20 0.19 0.15 0.20 0.31 0.31 0.35 0.40 0.45 0.49 0.52 0.54 0.55 0.55 0.52 0.48 0.44 0.41 0.39 0.36 0.34 0.35 0.34 0.32 0.30 0.29 0.28 0.25 0.25 0.27 0.28 0.31 0.33 0.34
0.20 0.18 0.18 0.14 0.17 0.10 0.14 0.23 0.23 0.19 0.21 0.24 0.25 0.28 0.32 0.35 0.41 0.47 0.50 0.50 0.52 0.54 0.53 0.51 0.48 0.48 0.44 0.39 0.36 0.36 0.35 0.34 0.32 0.29 0.28 0.27 0.26 0.26 0.25 0.26 0.28 0.31 0.33 0.33
0.33 0.21 0.15 0.13 0.13 0.15 0.16 0.21 0.22 0.20 0.18 0.27 0.28 0.32 0.36 0.41 0.43 0.40 0.49 0.53 0.55 0.56 0.52 0.51 0.51 0.47 0.39 0.35 0.36 0.35 0.34 0.32 0.28 0.25 0.24 0.25 0.27 0.26 0.25 0.26 0.28 0.29 0.31 0.32
0.35 0.29 0.19 0.17 0.13 0.10 0.15 0.23 0.32 0.30 0.16 0.28 0.32 0.34 0.35 0.38 0.28 0.31 0.48 0.54 0.57 0.56 0.53 0.50 0.47 0.43 0.38 0.37 0.37 0.35 0.31 0.25 0.23 0.23 0.24 0.25 0.27 0.27 0.26 0.27 0.28 0.28 0.28 0.27
0.25 0.24 0.17 0.16 0.14 0.15 0.20 0.29 0.33 0.16 0.15 0.29 0.33 0.34 0.36 0.33 0.38 0.46 0.52 0.56 0.58 0.56 0.53 0.49 0.46 0.42 0.39 0.37 0.35 0.29 0.23 0.22 0.25 0.25 0.24 0.25 0.28 0.28 0.28 0.28 0.28 0.27 0.26 0.26
0.20 0.18 0.17 0.19 0.15 0.12 0.26 0.31 0.23 0.27 0.33 0.34 0.38 0.41 0.42 0.46 0.50 0.51 0.55 0.56 0.56 0.54 0.49 0.48 0.47 0.41 0.37 0.34 0.29 0.22 0.23 0.25 0.24 0.23 0.23 0.25 0.27 0.29 0.29 0.28 0.26 0.24 0.24 0.22
0.23 0.26 0.21 0.22 0.20 0.29 0.34 0.33 0.39 0.41 0.39 0.41 0.43 0.49 0.53 0.53 0.53 0.57 0.56 0.53 0.55 0.49 0.48 0.50 0.44 0.35 0.31 0.29 0.25 0.24 0.24 0.24 0.23 0.23 0.24 0.24 0.27 0.29 0.30 0.27 0.25 0.24 0.24 0.22
0.31 0.36 0.27 0.27 0.30 0.32 0.37 0.41 0.43 0.46 0.46 0.50 0.55 0.58 0.59 0.56 0.60 0.60 0.56 0.52 0.50 0.49 0.53 0.44 0.35 0.31 0.28 0.26 0.26 0.26 0.25 0.24 0.23 0.23 0.24 0.26 0.27 0.29 0.30 0.28 0.27 0.26 0.25 0.24
0.33 0.35 0.31 0.31 0.33 0.36 0.39 0.42 0.46 0.49 0.55 0.57 0.59 0.60 0.60 0.62 0.61 0.59 0.54 0.54 0.52 0.55 0.43 0.36 0.33 0.29 0.25 0.26 0.25 0.26 0.25 0.25 0.23 0.25 0.26 0.27 0.29 0.29 0.30 0.29 0.28 0.28 0.29 0.24
0.35 0.31 0.29 0.28 0.36 0.38 0.39 0.46 0.51 0.51 0.52 0.57 0.57 0.59 0.63 0.63 0.58 0.56 0.57 0.55 0.54 0.41 0.37 0.34 0.31 0.26 0.25 0.25 0.24 0.25 0.25 0.26 0.25 0.24 0.25 0.28 0.29 0.31 0.32 0.29 0.30 0.32 0.28 0.24
Wind_Speed
8 9 9 8 8 7 9 8 7 6 6 6 5 3 1 3 5 5 5 5 6 6 8 8 9 9 9 9 10 12 14 15 16 17 19 20 21 22 23 23 27 29 30 31
7 8 9 9 7 7 7 6 4 8 8 7 6 2 2 3 4 4 5 5 5 5 5 7 7 6 6 8 9 10 12 15 17 20 22 23 24 25 26 26 28 29 30 31
8 8 7 8 7 6 5 8 7 8 8 7 5 3 3 4 3 3 3 4 4 4 4 4 5 5 7 9 11 12 14 16 18 20 21 22 23 24 26 28 29 30 32 34
7 7 9 7 7 7 6 6 7 9 6 8 6 6 6 6 6 5 6 5 5 4 4 5 4 6 9 11 12 14 16 18 19 21 22 24 26 26 28 29 31 33 36 39
9 8 8 6 7 6 7 7 8 7 5 6 7 5 9 8 9 9 9 7 6 6 6 6 7 9 13 13 14 15 17 18 20 22 23 25 26 27 29 31 34 37 40 41
8 7 6 8 6 6 7 6 4 6 7 8 10 8 10 11 12 10 9 9 8 8 8 7 9 12 15 15 16 18 18 20 21 23 25 26 28 30 32 34 37 40 42 45
5 6 6 7 6 6 6 5 6 6 7 9 8 7 11 13 11 12 11 11 9 9 9 10 13 14 13 15 16 17 19 20 22 24 27 29 31 33 36 39 41 44 47 48
7 5 6 7 7 7 6 8 6 8 6 8 6 8 8 10 11 12 11 9 9 9 10 12 12 12 14 15 17 18 20 22 25 28 30 32 34 36 39 41 44 47 48 49
7 6 6 5 6 6 6 4 6 3 5 4 7 7 7 5 7 10 10 9 9 9 10 10 11 13 15 17 18 20 22 24 27 30 31 34 36 39 41 43 45 48 49 50
8 6 6 5 5 3 5 6 2 3 3 5 5 6 6 5 9 9 9 9 9 10 10 11 13 15 16 18 19 22 24 28 30 32 34 37 39 41 43 45 48 49 49 48
8 6 7 6 4 6 4 3 1 2 1 3 4 6 6 8 9 9 9 10 11 11 12 14 16 17 18 20 22 25 28 30 32 34 37 39 41 43 45 47 48 49 49 47
8 8 7 8 7 6 5 4 3 2 4 4 4 8 7 10 11 10 10 11 11 12 14 16 17 19 21 23 26 28 30 32 33 36 38 40 42 44 46 48 49 50 48 48
11 7 6 5 6 7 7 5 3 3 4 6 4 9 9 7 6 9 11 11 12 14 16 17 19 21 23 25 28 31 32 33 35 37 39 41 44 46 48 50 51 50 50 49
9 8 9 10 8 8 8 7 7 6 6 8 11 11 11 10 10 10 11 13 15 16 18 20 21 23 26 29 32 31 33 35 37 38 40 43 45 48 50 51 52 52 51 51
9 9 9 8 7 8 9 9 10 11 11 10 13 14 15 15 15 14 15 16 17 19 21 22 24 26 30 32 32 34 35 36 37 40 42 45 47 49 51 52 53 52 51 49
10 10 10 10 9 10 12 13 13 14 14 17 16 18 16 15 15 16 17 18 20 21 23 24 27 30 31 31 33 35 36 37 39 41 44 46 48 50 52 53 53 52 49 46
10 11 10 13 12 13 14 16 16 16 16 15 17 20 16 17 18 18 19 21 22 23 25 27 30 31 32 32 34 35 36 39 41 43 45 47 50 51 53 53 52 50 46 43
11 11 12 14 13 14 16 15 16 17 18 19 20 20 20 20 20 19 21 23 24 26 27 29 30 31 32 33 34 36 38 41 43 45 47 49 50 51 53 52 51 48 44 39
11 13 13 14 17 20 19 17 17 18 22 21 22 21 20 20 20 23 25 25 26 27 29 30 31 31 32 33 34 37 40 42 44 46 49 49 50 52 52 50 48 46 40 33
11 12 14 15 16 19 20 19 18 19 24 22 21 21 19 20 23 27 25 26 28 29 30 30 30 31 31 33 35 38 41 44 46 48 49 49 50 51 50 48 46 40 34 28
11 13 14 15 19 23 22 20 19 18 24 20 20 21 22 25 27 26 25 26 27 29 29 29 29 30 32 33 36 40 43 45 47 48 49 49 50 51 48 46 41 36 30 25
13 13 15 15 17 23 19 19 20 22 22 23 25 26 27 27 27 27 26 25 26 27 28 28 29 31 32 36 39 42 44 46 48 48 49 50 51 48 45 41 36 31 25 22
17 17 17 18 20 21 23 24 25 25 26 27 28 28 28 27 28 27 27 27 28 28 28 28 29 32 35 38 41 43 45 47 48 48 49 51 49 44 40 35 31 27 23 21
20 20 21 21 23 26 27 28 29 29 30 30 30 28 27 29 27 27 28 27 27 27 27 28 31 35 38 40 42 44 46 47 48 48 49 49 44 40 35 31 27 24 21 21
21 20 22 26 28 28 29 28 29 29 29 29 29 29 29 27 27 27 26 28 27 26 27 30 34 37 39 41 43 45 46 48 48 48 47 45 41 36 32 27 23 22 21 22
22 23 23 26 27 26 27 26 26 27 29 29 29 28 28 28 27 26 27 26 25 26 29 33 36 38 40 42 44 46 46 46 46 46 44 41 38 34 29 25 23 22 22 22
Wind_Direction
160 159 172 188 195 196 184 183 201 212 188 170 184 172 236 187 186 200 218 228 247 262 270 271 277 278 283 284 286 284 284 289 293 296 301 303 303 302 302 302 302 303 305 306
177 183 201 202 192 177 184 187 202 200 201 185 178 182 235 204 214 217 217 233 247 260 282 290 281 280 283 291 297 296 294 295 295 300 301 301 300 299 300 302 305 306 307 307
189 197 199 190 182 182 194 194 207 180 162 181 196 235 240 221 217 232 249 245 260 270 278 291 294 285 300 303 303 302 302 302 302 305 306 306 305 305 304 304 305 307 308 308
178 188 180 176 181 195 210 213 189 186 201 211 234 235 235 235 239 253 246 252 262 258 283 291 287 296 310 311 309 308 308 307 306 306 307 306 306 306 305 305 305 306 308 308
196 186 185 187 212 214 207 198 197 210 221 226 254 253 256 237 248 244 243 247 254 267 277 284 292 301 306 305 307 309 311 309 308 308 309 309 309 308 307 307 307 308 309 308
186 200 207 214 214 218 204 203 219 235 245 261 252 251 262 243 242 237 240 245 254 265 278 287 295 308 304 306 306 308 309 313 313 312 311 312 311 309 308 308 308 309 309 308
205 223 225 212 210 224 216 220 252 265 269 258 271 260 262 242 238 229 231 243 256 272 281 290 299 311 302 307 308 308 310 312 313 315 314 313 312 310 309 309 308 309 309 309
195 232 217 226 217 218 221 216 220 237 250 260 274 265 271 259 229 224 234 250 256 269 281 292 298 306 308 310 308 309 310 310 312 313 314 313 312 311 311 310 309 309 309 309
197 216 218 210 212 206 214 221 220 213 278 274 265 276 283 251 224 222 229 241 255 272 283 290 300 307 308 310 308 308 308 311 313 314 314 314 314 314 313 313 311 311 311 310
204 192 200 205 191 188 202 185 227 277 243 274 285 279 264 233 224 226 237 248 260 274 283 291 299 305 310 313 312 312 311 313 313 314 315 316 316 316 316 315 315 314 313 312
197 191 214 196 197 192 201 215 174 184 240 226 286 281 269 244 235 239 249 258 263 275 284 295 303 306 310 312 314 315 313 315 315 315 316 317 318 318 318 318 318 317 315 312
200 189 195 201 208 214 210 210 218 234 257 280 268 288 298 275 253 249 259 270 277 281 290 298 302 305 309 312 314 315 314 314 314 316 317 318 319 319 320 320 319 318 316 313
198 208 200 225 228 230 221 227 243 249 270 261 271 285 305 302 277 263 263 272 279 286 293 298 300 303 306 310 312 313 313 313 314 315 317 318 319 320 320 320 320 318 316 314
199 207 206 209 221 225 228 236 246 256 269 271 272 289 285 282 276 273 272 275 281 286 291 296 299 302 305 307 309 310 311 312 313 315 316 318 319 319 320 320 320 319 317 315
212 211 220 224 243 246 248 249 249 255 263 265 282 281 284 275 275 271 274 278 282 287 291 294 298 301 304 306 307 309 310 312 313 315 316 317 318 320 320 321 320 320 318 316
225 222 231 235 254 264 261 263 262 266 269 275 282 288 285 287 282 276 274 278 283 287 291 295 298 301 304 304 306 308 310 311 313 314 316 317 319 320 320 321 321 321 320 319
229 225 236 250 261 269 275 261 262 269 270 272 275 283 284 284 279 274 276 280 283 289 293 297 300 302 303 304 307 308 310 312 313 315 316 317 319 320 321 322 322 322 320 320
234 240 248 252 264 269 266 272 274 272 274 274 283 282 280 284 287 282 282 283 286 290 295 299 301 303 303 305 306 309 311 313 314 315 316 318 319 321 322 322 322 321 319 318
252 246 255 254 258 274 275 269 270 270 279 276 279 282 283 288 290 289 283 284 287 291 296 299 301 303 304 306 308 311 313 314 315 316 317 318 319 321 322 322 322 321 318 316
262 260 257 264 265 267 274 277 274 281 285 279 275 276 278 286 290 292 286 284 287 293 298 299 302 304 306 308 311 313 315 316 316 317 318 318 319 321 321 321 321 321 320 316
273 274 261 267 271 279 276 278 278 283 285 284 276 277 280 286 289 294 292 290 291 295 298 300 304 306 308 310 313 315 316 317 318 318 318 319 319 320 320 320 320 319 317 314
262 264 269 274 279 282 276 280 274 281 286 284 282 283 281 286 289 292 293 293 294 296 298 301 304 307 309 311 314 316 317 318 319 319 319 319 319 318 318 319 318 318 315 312
275 268 274 267 276 281 280 281 283 285 286 286 285 287 283 286 288 288 290 292 295 296 298 302 305 308 310 313 314 316 317 319 319 319 320 320 320 318 318 317 317 317 313 311
277 276 279 284 283 281 281 282 282 283 286 288 287 285 284 288 286 289 292 294 297 295 299 302 306 309 311 313 315 315 318 319 319 320 320 322 320 319 318 315 315 316 313 311
279 281 281 283 286 286 285 284 285 286 286 287 287 286 286 286 287 286 288 293 292 294 299 303 307 310 312 314 315 316 318 319 319 319 320 321 320 318 317 314 312 314 313 313
279 279 281 283 285 286 288 290 289 287 287 287 287 288 288 287 287 286 292 291 290 295 301 306 309 311 313 315 316 317 318 319 320 320 320 320 319 317 314 309 308 309 311 314